Location: Newark
(43.6583°N, 1.6617°E)
Time: 17:11:13
(UTC+00:00)

Courier 1B - Pass Details

Date: 30 August 2019
Orbit: 962 x 1209 km, 28.3° (Epoch: 18 October)

Event Time Altitude Azimuth Distance (km) Brightness Sun altitude
Rises 15:46:49 0° 240° (WSW) 3,979 11.8 28.9°
Reaches altitude 10° 15:50:19 10° 226° (SW) 2,976 11.2 28.3°
Maximum altitude 15:55:42 23° 178° (S) 2,126 9.6 27.4°
Drops below altitude 10° 16:00:53 10° 130° (SE) 2,838 9.7 26.5°
Sets 16:04:07 0° 116° (ESE) 3,749 10.1 25.9°
